Lincoln, NE

5:04 PM CST on February 22, 2018 (GMT -0600)
Lincoln Municipal

Weather History for KLNK - September, 2014

Change the Weather History Date:

Tuesday, September 23, 2014

  Actual Average Record
Temperature  
Mean Temperature 64 °F 63 °F  
Max Temperature 70 °F 76 °F 97 °F (1921)
Min Temperature 58 °F 50 °F 31 °F (1983)
Degree Days  
Heating Degree Days 1 5  
Month to date heating degree days 93 52  
Since 1 July heating degree days 95 58  
Cooling Degree Days 0 2  
Month to date cooling degree days 84 110  
Year to date cooling degree days 1195 1145  
Growing Degree Days 14 (Base 50)    
Moisture  
Dew Point 54 °F    
Average Humidity 74    
Maximum Humidity 87    
Minimum Humidity 61    
Precipitation  
Precipitation 0.21 in 0.09 in 3.63 in (1910)
Month to date precipitation 3.56 2.41  
Year to date precipitation 27.26 23.99  
Snow  
Snow 0.00 in 0.00 in - ()
Month to date snowfall 0.0 0.0  
Since 1 July snowfall 0.0 0.0  
Snow Depth 0.00 in    
Sea Level Pressure  
Sea Level Pressure 30.11 in    
Wind  
Wind Speed 13 mph (SSE)    
Max Wind Speed 25 mph    
Max Gust Speed 32 mph    
Visibility 10 miles    
Events Rain    
T = Trace of Precipitation, MM = Missing Value Source: NWS Daily Summary

Daily Weather History Graph

Daily Weather History Graph

Search for Another Location

Airport or City:

Trip Planner

Search our weather history database for the weather conditions in past years. The results will help you decide how hot, cold, wet, or windy it might be!

Date:

Astronomy

Sep. 23, 2014 Rise Set
Actual Time 7:15 AM CDT 7:22 PM CDT
Civil Twilight 6:48 AM CDT 7:49 PM CDT
Nautical Twilight 6:16 AM CDT 8:21 PM CDT
Astronomical Twilight 5:43 AM CDT 8:54 PM CDT
Moon 6:40 AM CDT (9/23) 7:01 PM CDT (9/23)
Length of Visible Light 13h 01m
Length of Day
12h 06m
Waning Crescent, 0% of the Moon is Illuminated
Sep 23
Waning Crescent
Sep 24
New
Oct 1
First Quarter
Oct 8
Full
Oct 15
Last Quarter

Hourly Weather History & Observations

Time (CDT) Temp. Dew Point Humidity Pressure Visibility Wind Dir Wind Speed Gust Speed Precip Events Conditions
12:54 AM 62.1 °F 51.1 °F 67% 30.16 in 10.0 mi South 6.9 mph - N/A   Mostly Cloudy
1:54 AM 60.1 °F 51.1 °F 72% 30.15 in 10.0 mi SSE 8.1 mph - N/A   Clear
2:54 AM 59.0 °F 51.1 °F 75% 30.15 in 10.0 mi South 5.8 mph - N/A   Scattered Clouds
3:54 AM 60.1 °F 51.1 °F 72% 30.15 in 10.0 mi South 4.6 mph - N/A   Mostly Cloudy
4:54 AM 59.0 °F 52.0 °F 78% 30.14 in 10.0 mi South 6.9 mph - N/A   Partly Cloudy
5:54 AM 59.0 °F 52.0 °F 78% 30.14 in 10.0 mi South 8.1 mph - N/A   Clear
6:54 AM 60.1 °F 52.0 °F 75% 30.14 in 10.0 mi SSE 9.2 mph - N/A   Mostly Cloudy
7:54 AM 61.0 °F 53.1 °F 75% 30.16 in 10.0 mi SSW 8.1 mph - 0.00 in Rain Light Rain
8:54 AM 59.0 °F 55.0 °F 87% 30.17 in 4.0 mi South 3.5 mph - 0.03 in Rain Rain
9:54 AM 59.0 °F 55.9 °F 90% 30.16 in 6.0 mi SE 10.4 mph - 0.15 in Rain Light Rain
10:54 AM 60.1 °F 55.9 °F 86% 30.15 in 10.0 mi SE 11.5 mph - 0.03 in   Overcast
11:49 AM 64.4 °F 57.2 °F 77% 30.15 in 10.0 mi South 16.1 mph - N/A   Overcast
11:54 AM 63.0 °F 57.0 °F 81% 30.13 in 10.0 mi South 16.1 mph - N/A   Overcast
12:20 PM 66.9 °F 59.0 °F 76% 30.14 in 10.0 mi South 13.8 mph - N/A   Mostly Cloudy
12:54 PM 69.1 °F 57.9 °F 68% 30.12 in 10.0 mi South 19.6 mph 26.5 mph N/A   Partly Cloudy
1:54 PM 70.0 °F 55.9 °F 61% 30.10 in 10.0 mi South 21.9 mph 27.6 mph N/A   Overcast
2:54 PM 66.0 °F 55.0 °F 68% 30.09 in 10.0 mi South 21.9 mph 31.1 mph N/A   Overcast
3:04 PM 66.0 °F 55.9 °F 70% 30.10 in 10.0 mi South 19.6 mph 27.6 mph N/A   Overcast
3:54 PM 64.0 °F 55.0 °F 73% 30.08 in 10.0 mi South 16.1 mph 29.9 mph N/A   Overcast
4:46 PM 62.1 °F 55.0 °F 78% 30.09 in 10.0 mi SSE 18.4 mph - N/A   Overcast
4:54 PM 62.1 °F 54.0 °F 75% 30.08 in 10.0 mi SSE 23.0 mph 27.6 mph N/A   Overcast
5:08 PM 61.0 °F 54.0 °F 78% 30.09 in 10.0 mi SSE 17.3 mph 24.2 mph N/A   Overcast
5:54 PM 62.1 °F 52.0 °F 70% 30.08 in 10.0 mi SE 16.1 mph - N/A   Overcast
6:54 PM 63.0 °F 54.0 °F 72% 30.05 in 10.0 mi SSE 16.1 mph 24.2 mph N/A   Overcast
7:54 PM 64.9 °F 53.1 °F 65% 30.06 in 10.0 mi SSE 17.3 mph - N/A   Overcast
8:54 PM 64.0 °F 55.0 °F 73% 30.07 in 10.0 mi SSE 16.1 mph 27.6 mph N/A   Overcast
9:54 PM 63.0 °F 55.0 °F 75% 30.08 in 10.0 mi SSE 15.0 mph - N/A   Partly Cloudy
10:54 PM 64.0 °F 55.0 °F 73% 30.08 in 10.0 mi South 12.7 mph - N/A   Clear
11:54 PM 64.0 °F 55.0 °F 73% 30.06 in 10.0 mi SSE 13.8 mph - N/A   Clear